, CO

(GMT )
Cottonwood Pass

Weather History for K7BM - March, 2013

Change the Weather History Date:

Tuesday, March 19, 2013

  Actual Average Record
Temperature  
Mean Temperature 34 °F -  
Max Temperature 39 °F - - ()
Min Temperature 28 °F - - ()
Degree Days  
Heating Degree Days 32    
Moisture  
Dew Point -15 °F    
Average Humidity 18    
Maximum Humidity 47    
Minimum Humidity 4    
Precipitation  
Precipitation 0.00 in - - ()
Sea Level Pressure  
Sea Level Pressure 30.11 in    
Wind  
Wind Speed 12 mph (WNW)    
Max Wind Speed 26 mph    
Max Gust Speed 41 mph    
Visibility 10 miles    
Events      
T = Trace of Precipitation, MM = Missing Value Source: NWS Daily Summary

Daily Weather History Graph

Daily Weather History Graph

Search for Another Location

Airport or City:

Trip Planner

Search our weather history database for the weather conditions in past years. The results will help you decide how hot, cold, wet, or windy it might be!

Date:

Astronomy

Mar. 19, 2013 Rise Set
Actual Time 7:09 AM MDT 7:16 PM MDT
Civil Twilight 6:42 AM MDT 7:42 PM MDT
Nautical Twilight 6:11 AM MDT 8:13 PM MDT
Astronomical Twilight 5:40 AM MDT 8:45 PM MDT
Moon 12:05 PM MDT (3/19) 2:01 AM MDT (3/19)
Length of Visible Light 12h 59m
Length of Day
12h 06m
Waxing Crescent, 50% of the Moon is Illuminated
Mar 19
Waxing Crescent
Mar 27
Full
Apr 2
Last Quarter
Apr 10
New
Apr 18
First Quarter

Hourly Weather History & Observations

Time (MDT) Temp. Windchill Dew Point Humidity Pressure Visibility Wind Dir Wind Speed Gust Speed Precip Events Conditions
12:16 AM 32.0 °F 21.2 °F 3.2 °F 30% 29.96 in 10.0 mi WNW 16.1 mph 28.8 mph N/A   Clear
12:36 AM 32.0 °F 20.8 °F 3.2 °F 30% 29.96 in 10.0 mi NW 17.3 mph 33.4 mph N/A   Clear
12:55 AM 32.0 °F 21.6 °F 3.2 °F 30% 29.98 in 10.0 mi WNW 15.0 mph 28.8 mph N/A   Clear
1:16 AM 30.2 °F 20.8 °F 3.2 °F 32% 29.98 in 10.0 mi WNW 11.5 mph 23.0 mph N/A   Clear
1:36 AM 30.2 °F 20.8 °F 3.2 °F 32% 29.98 in 10.0 mi WNW 11.5 mph 33.4 mph N/A   Clear
1:56 AM 30.2 °F 20.8 °F 1.4 °F 29% 29.98 in 10.0 mi NW 11.5 mph 28.8 mph N/A   Clear
2:16 AM 30.2 °F 21.9 °F 1.4 °F 29% 29.98 in 10.0 mi NW 9.2 mph 34.5 mph N/A   Clear
2:36 AM 30.2 °F 20.8 °F 3.2 °F 32% 29.99 in 10.0 mi NW 11.5 mph 25.3 mph N/A   Clear
2:56 AM 30.2 °F 19.8 °F 3.2 °F 32% 29.99 in 10.0 mi WNW 13.8 mph 26.5 mph N/A   Scattered Clouds
3:16 AM 30.2 °F 21.3 °F 5.0 °F 34% 29.99 in 10.0 mi NW 10.4 mph 25.3 mph N/A   Scattered Clouds
3:36 AM 30.2 °F 20.2 °F 5.0 °F 34% 29.99 in 10.0 mi WNW 12.7 mph 28.8 mph N/A   Scattered Clouds
3:56 AM 30.2 °F 18.9 °F 5.0 °F 34% 29.98 in 10.0 mi NW 16.1 mph 35.7 mph N/A   Clear
4:16 AM 30.2 °F 20.8 °F 5.0 °F 34% 29.98 in 10.0 mi NW 11.5 mph 32.2 mph N/A   Clear
4:36 AM 30.2 °F 19.8 °F 5.0 °F 34% 29.99 in 10.0 mi NW 13.8 mph 25.3 mph N/A   Clear
4:56 AM 30.2 °F 19.3 °F 3.2 °F 32% 29.99 in 10.0 mi NW 15.0 mph 26.5 mph N/A   Clear
5:16 AM 30.2 °F 20.2 °F 3.2 °F 32% 29.99 in 10.0 mi WNW 12.7 mph 29.9 mph N/A   Clear
5:36 AM 30.2 °F 18.9 °F 5.0 °F 34% 29.99 in 10.0 mi WNW 16.1 mph 26.5 mph N/A   Clear
5:56 AM 30.2 °F 19.3 °F 5.0 °F 34% 29.99 in 10.0 mi NW 15.0 mph 28.8 mph N/A   Scattered Clouds
6:16 AM 30.2 °F 23.4 °F 8.6 °F 40% 30.01 in 10.0 mi NW 6.9 mph 26.5 mph N/A   Scattered Clouds
6:36 AM 28.4 °F 21.2 °F 8.6 °F 43% 30.02 in 10.0 mi North 6.9 mph 25.3 mph N/A   Clear
6:56 AM 28.4 °F 21.2 °F 10.4 °F 47% 30.03 in 10.0 mi North 6.9 mph 20.7 mph N/A   Clear
7:16 AM 28.4 °F 20.4 °F 10.4 °F 47% 30.04 in 10.0 mi North 8.1 mph - N/A   Clear
7:36 AM 28.4 °F 18.5 °F 10.4 °F 47% 30.03 in 10.0 mi NNW 11.5 mph 25.3 mph N/A   Clear
7:56 AM 28.4 °F 14.7 °F 6.8 °F 40% 30.02 in 10.0 mi WNW 21.9 mph 34.5 mph N/A   Clear
8:16 AM 28.4 °F 13.5 °F 5.0 °F 37% 30.03 in 10.0 mi WNW 26.5 mph 41.4 mph N/A   Clear
8:36 AM 30.2 °F 17.4 °F 5.0 °F 34% 30.05 in 10.0 mi WNW 20.7 mph 40.3 mph N/A   Clear
8:56 AM 30.2 °F 24.3 °F 3.2 °F 32% 30.08 in 10.0 mi WNW 5.8 mph 29.9 mph N/A   Clear
9:16 AM 30.2 °F 20.2 °F 1.4 °F 29% 30.10 in 10.0 mi West 12.7 mph 24.2 mph N/A   Clear
9:35 AM 32.0 °F 26.4 °F 3.2 °F 30% 30.10 in 10.0 mi WSW 5.8 mph - N/A   Clear
9:56 AM 32.0 °F 22.1 °F -4.0 °F 21% 30.09 in 10.0 mi WSW 13.8 mph 24.2 mph N/A   Clear
10:15 AM 32.0 °F 20.8 °F -5.8 °F 20% 30.09 in 10.0 mi West 17.3 mph 40.3 mph N/A   Clear
10:36 AM 32.0 °F 21.6 °F -7.6 °F 18% 30.10 in 10.0 mi WSW 15.0 mph 35.7 mph N/A   Clear
10:56 AM 32.0 °F 20.1 °F -9.4 °F 17% 30.10 in 10.0 mi WSW 19.6 mph 26.5 mph N/A   Clear
11:16 AM 32.0 °F 20.5 °F -13.0 °F 14% 30.11 in 10.0 mi West 18.4 mph 27.6 mph N/A   Clear
11:36 AM 33.8 °F 25.3 °F -11.2 °F 14% 30.11 in 10.0 mi West 11.5 mph 28.8 mph N/A   Clear
11:56 AM 35.6 °F 31.7 °F -7.6 °F 16% 30.12 in 10.0 mi NNW 4.6 mph 21.9 mph N/A   Clear
12:16 PM 35.6 °F 29.2 °F -11.2 °F 13% 30.12 in 10.0 mi WNW 8.1 mph - N/A   Clear
12:36 PM 35.6 °F 26.6 °F -25.6 °F 6% 30.11 in 10.0 mi North 13.8 mph 32.2 mph N/A   Clear
12:56 PM 35.6 °F 28.6 °F -23.8 °F 7% 30.12 in 10.0 mi North 9.2 mph 19.6 mph N/A   Clear
1:16 PM 35.6 °F 29.2 °F -25.6 °F 6% 30.12 in 10.0 mi North 8.1 mph 20.7 mph N/A   Clear
1:36 PM 35.6 °F 29.9 °F -27.4 °F 6% 30.13 in 10.0 mi NNW 6.9 mph 19.6 mph N/A   Clear
1:56 PM 37.4 °F 28.5 °F -36.4 °F 4% 30.13 in 10.0 mi WNW 15.0 mph 27.6 mph N/A   Clear
2:16 PM 35.6 °F 29.2 °F -43.6 °F 4% 30.13 in 10.0 mi NW 8.1 mph 23.0 mph N/A   Clear
2:36 PM 39.2 °F 35.0 °F -32.8 °F 4% 30.13 in 10.0 mi West 5.8 mph - N/A   Clear
2:56 PM 37.4 °F 33.8 °F -32.8 °F 4% 30.13 in 10.0 mi North 4.6 mph 17.3 mph N/A   Clear
3:16 PM 39.2 °F 33.0 °F -31.0 °F 4% 30.13 in 10.0 mi West 9.2 mph 18.4 mph N/A   Clear
3:36 PM 37.4 °F 31.4 °F -43.6 °F 4% 30.14 in 10.0 mi WNW 8.1 mph 25.3 mph N/A   Clear
3:56 PM 37.4 °F 30.8 °F -31.0 °F 5% 30.13 in 10.0 mi North 9.2 mph 16.1 mph N/A   Clear
4:16 PM 37.4 °F 28.5 °F -32.8 °F 4% 30.14 in 10.0 mi WSW 15.0 mph 32.2 mph N/A   Clear
4:36 PM 35.6 °F 26.2 °F -34.6 °F 4% 30.15 in 10.0 mi West 15.0 mph 25.3 mph N/A   Clear
4:56 PM 37.4 °F 31.4 °F -38.2 °F 4% 30.16 in 10.0 mi NNW 8.1 mph 17.3 mph N/A   Clear
5:16 PM 35.6 °F 26.6 °F -36.4 °F 4% 30.16 in 10.0 mi West 13.8 mph 29.9 mph N/A   Clear
5:36 PM 35.6 °F 29.2 °F -40.0 °F 4% 30.17 in 10.0 mi NW 8.1 mph 20.7 mph N/A   Clear
5:55 PM 35.6 °F 28.0 °F -36.4 °F 4% 30.17 in 10.0 mi WNW 10.4 mph 19.6 mph N/A   Clear
6:15 PM 33.8 °F 26.4 °F -34.6 °F 4% 30.18 in 10.0 mi NNW 9.2 mph - N/A   Clear
6:36 PM 33.8 °F 27.7 °F -29.2 °F 6% 30.19 in 10.0 mi North 6.9 mph - N/A   Clear
6:56 PM 32.0 °F 26.4 °F -32.8 °F 5% 30.20 in 10.0 mi NNW 5.8 mph - N/A   Clear
7:16 PM 32.0 °F 26.4 °F -29.2 °F 6% 30.21 in 10.0 mi NNW 5.8 mph - N/A   Clear
7:36 PM 32.0 °F 24.8 °F -31.0 °F 6% 30.21 in 10.0 mi WNW 8.1 mph - N/A   Clear
7:56 PM 32.0 °F 24.8 °F -36.4 °F 4% 30.22 in 10.0 mi WNW 8.1 mph - N/A   Clear
8:16 PM 32.0 °F 27.5 °F -34.6 °F 5% 30.23 in 10.0 mi NNW 4.6 mph - N/A   Clear
8:36 PM 32.0 °F 22.1 °F -40.0 °F 4% 30.23 in 10.0 mi West 13.8 mph 19.6 mph N/A   Clear
8:56 PM 30.2 °F 22.6 °F -31.0 °F 6% 30.24 in 10.0 mi West 8.1 mph - N/A   Clear
9:16 PM 30.2 °F 21.3 °F -34.6 °F 5% 30.25 in 10.0 mi West 10.4 mph 16.1 mph N/A   Clear
9:36 PM 30.2 °F 22.6 °F -29.2 °F 7% 30.25 in 10.0 mi WNW 8.1 mph - N/A   Clear
9:56 PM 28.4 °F 20.4 °F -27.4 °F 8% 30.26 in 10.0 mi West 8.1 mph - N/A   Clear
10:16 PM 28.4 °F 19.1 °F -29.2 °F 7% 30.27 in 10.0 mi West 10.4 mph 17.3 mph N/A   Clear
10:36 PM 28.4 °F 18.5 °F -29.2 °F 7% 30.27 in 10.0 mi West 11.5 mph - N/A   Clear
10:56 PM 28.4 °F 18.5 °F -27.4 °F 8% 30.27 in 10.0 mi West 11.5 mph - N/A   Clear
11:16 PM 28.4 °F 18.0 °F -23.8 °F 9% 30.27 in 10.0 mi West 12.7 mph - N/A   Clear
11:36 PM 28.4 °F 16.6 °F -27.4 °F 8% 30.27 in 10.0 mi West 16.1 mph 19.6 mph N/A   Clear
11:56 PM 28.4 °F 16.2 °F -29.2 °F 7% 30.26 in 10.0 mi West 17.3 mph - N/A   Clear